WB4YDL Weather Reports


Display with metric or nautical units.
time (UTC)temp
F
wind
direction
speed
MPH
gust
MPH
rain 1hr
in
rain 24hr
in
rain mn
in
humidity
%
barometer
mb
20260906012838 83 197 0.0 0.0 0.00 0.00 0.00 88 1006.0
20260906012333 83 198 1.0 1.0 0.00 0.00 0.00 88 1005.8
20260906011833 84 197 0.0 0.0 0.00 0.00 0.00 88 1006.0
20260906011327 84 199 0.0 0.0 0.00 0.00 0.00 88 1005.9
20260906010823 84 171 0.0 0.0 0.00 0.00 0.00 87 1005.8
20260906010320 84 171 0.0 0.0 0.00 0.00 0.00 87 1005.8
20260906005814 84 171 0.0 0.0 0.00 0.00 0.00 83 1005.6
20260906005313 85 171 0.0 0.0 0.00 0.00 0.00 83 1005.8
20260906004812 86 171 0.0 0.0 0.00 0.00 0.00 84 1005.4
20260906004313 86 171 0.0 0.0 0.00 0.00 0.00 85 1005.6
20260906003808 87 171 0.0 0.0 0.00 0.00 0.00 80 1005.4
20260906003303 87 171 0.0 0.0 0.00 0.00 0.00 79 1005.5
20260906002759 87 171 0.0 0.0 0.00 0.00 0.00 79 1005.3
20260906002258 88 171 0.0 0.0 0.00 0.00 0.00 78 1005.8
20260906001754 89 171 0.0 0.0 0.00 0.00 0.00 80 1005.6
20260906001248 90 171 1.0 1.0 0.00 0.00 0.00 77 1005.5
20260906000743 91 170 1.0 1.0 0.00 0.00 0.00 74 1005.7
20260906000238 92 222 0.0 0.0 0.00 0.00 0.00 72 1005.8
20260905235733 92 222 0.0 1.0 0.00 0.00 0.00 73 1005.7
20260905235233 93 272 0.0 0.0 0.00 0.00 0.00 66 1005.8
20260905234729 94 281 0.0 0.0 0.00 0.00 0.00 60 1005.9
20260905234224 96 320 0.0 1.0 0.00 0.00 0.00 62 1005.8
20260905233719 96 321 0.0 1.0 0.00 0.00 0.00 55 1005.6
20260905233218 96 321 1.0 1.0 0.00 0.00 0.00 54 1005.8
20260905232713 97 321 1.0 1.0 0.00 0.00 0.00 52 1005.9
20260905232209 98 298 2.0 2.0 0.00 0.00 0.00 50 1006.0
20260905231705 98 290 2.0 2.0 0.00 0.00 0.00 51 1006.0
20260905231200 98 302 1.0 1.0 0.00 0.00 0.00 54 1005.9
20260905230656 98 302 1.0 1.0 0.00 0.00 0.00 51 1005.8
20260905230154 99 346 2.0 2.0 0.00 0.00 0.00 54 1005.7
20260905225653 99 350 1.0 1.0 0.00 0.00 0.00 50 1005.7
20260905225148 99 309 2.0 2.0 0.00 0.00 0.00 50 1005.7
20260905224648 99 324 2.0 2.0 0.00 0.00 0.00 51 1005.7
20260905224142 99 238 0.0 1.0 0.00 0.00 0.00 51 1005.5
20260905223639 99 276 2.0 2.0 0.00 0.00 0.00 49 1005.6
20260905223136 100 344 3.0 3.0 0.00 0.00 0.00 52 1005.7
20260905222631 100 295 2.0 2.0 0.00 0.00 0.00 50 1005.8
20260905222126 100 290 2.0 2.0 0.00 0.00 0.00 52 1005.7
20260905221621 100 260 1.0 2.0 0.00 0.00 0.00 48 1005.6
20260905221118 100 271 3.0 4.0 0.00 0.00 0.00 48 1005.6
20260905220613 100 290 2.0 2.0 0.00 0.00 0.00 49 1005.7
20260905220109 100 308 3.0 6.0 0.00 0.00 0.00 49 1005.8
20260905215609 100 280 2.0 3.0 0.00 0.00 0.00 48 1005.8
20260905215104 100 292 2.0 2.0 0.00 0.00 0.00 49 1005.9
20260905214600 100 271 1.0 1.0 0.00 0.00 0.00 50 1005.9
20260905214055 99 194 2.0 2.0 0.00 0.00 0.00 48 1005.8
20260905213550 101 284 3.0 3.0 0.00 0.00 0.00 51 1006.0
20260905213046 101 272 1.0 2.0 0.00 0.00 0.00 49 1005.7
20260905212545 101 255 2.0 2.0 0.00 0.00 0.00 46 1005.8
20260905212045 101 271 2.0 2.0 0.00 0.00 0.00 49 1005.9
20260905211540 101 355 3.0 3.0 0.00 0.00 0.00 48 1006.0
20260905211036 100 48 3.0 3.0 0.00 0.00 0.00 47 1006.1
20260905210531 101 326 2.0 2.0 0.00 0.00 0.00 47 1006.1
20260905210026 101 245 3.0 3.0 0.00 0.00 0.00 45 1006.2
20260905205525 101 336 2.0 3.0 0.00 0.00 0.00 51 1006.2
20260905205025 102 239 2.0 2.0 0.00 0.00 0.00 47 1006.1
20260905204520 100 251 1.0 1.0 0.00 0.00 0.00 47 1006.3
20260905204015 102 238 1.0 1.0 0.00 0.00 0.00 46 1006.1
20260905203510 101 33 0.0 1.0 0.00 0.00 0.00 47 1006.2
20260905203005 101 302 2.0 3.0 0.00 0.00 0.00 47 1006.2
20260905202500 102 207 1.0 1.0 0.00 0.00 0.00 49 1006.6
20260905201955 100 193 3.0 3.0 0.00 0.00 0.00 49 1006.4
20260905201451 100 205 1.0 1.0 0.00 0.00 0.00 48 1006.6
20260905200950 99 179 1.0 1.0 0.00 0.00 0.00 49 1006.7
20260905200446 99 128 1.0 1.0 0.00 0.00 0.00 48 1006.8
20260905195944 98 150 2.0 2.0 0.00 0.00 0.00 52 1006.7
20260905195440 99 168 2.0 3.0 0.00 0.00 0.00 49 1006.9
20260905194935 101 251 0.0 0.0 0.00 0.00 0.00 45 1007.0
20260905194435 102 166 2.0 3.0 0.00 0.00 0.00 46 1007.2
20260905193935 101 189 1.0 1.0 0.00 0.00 0.00 45 1007.3
20260905193430 100 280 1.0 1.0 0.00 0.00 0.00 46 1007.6
20260905192930 99 36 2.0 2.0 0.00 0.00 0.00 49 1007.4
20260905192425 101 204 1.0 1.0 0.00 0.00 0.00 46 1007.5
20260905191921 100 56 1.0 1.0 0.00 0.00 0.00 51 1007.6
20260905191419 100 249 2.0 2.0 0.00 0.00 0.00 48 1007.8
20260905190914 99 295 2.0 3.0 0.00 0.00 0.00 50 1007.8
20260905190412 98 106 4.0 4.0 0.00 0.00 0.00 49 1008.0
20260905185910 100 126 4.0 4.0 0.00 0.00 0.00 49 1008.1
20260905185406 99 79 0.0 1.0 0.00 0.00 0.00 49 1008.0
20260905184904 99 320 5.0 6.0 0.00 0.00 0.00 49 1008.1
20260905184359 100 310 1.0 1.0 0.00 0.00 0.00 49 1008.1
20260905183857 100 110 5.0 6.0 0.00 0.00 0.00 45 1008.3
20260905183353 100 30 2.0 2.0 0.00 0.00 0.00 50 1008.2
20260905182847 99 51 4.0 4.0 0.00 0.00 0.00 50 1008.2
20260905182342 98 280 1.0 2.0 0.00 0.00 0.00 50 1008.1
20260905181837 98 327 6.0 7.0 0.00 0.00 0.00 50 1008.2
20260905181337 99 302 4.0 4.0 0.00 0.00 0.00 50 1008.1
20260905180836 99 314 4.0 4.0 0.00 0.00 0.00 49 1008.3
20260905180331 98 244 2.0 2.0 0.00 0.00 0.00 53 1008.4
20260905175826 98 91 1.0 2.0 0.00 0.00 0.00 52 1008.3
20260905175320 98 82 1.0 2.0 0.00 0.00 0.00 54 1008.5
20260905174815 97 286 2.0 2.0 0.00 0.00 0.00 51 1008.7
20260905174311 97 349 2.0 2.0 0.00 0.00 0.00 57 1008.6
20260905173807 97 22 3.0 3.0 0.00 0.00 0.00 53 1008.5
20260905173303 97 296 1.0 2.0 0.00 0.00 0.00 56 1008.5
20260905172803 97 250 2.0 3.0 0.00 0.00 0.00 54 1008.5
20260905172301 98 290 3.0 3.0 0.00 0.00 0.00 55 1008.6
20260905171757 98 184 1.0 1.0 0.00 0.00 0.00 55 1008.7
20260905171253 98 248 1.0 2.0 0.00 0.00 0.00 52 1008.8
20260905170749 96 201 1.0 2.0 0.00 0.00 0.00 52 1009.0
20260905170245 98 347 2.0 4.0 0.00 0.00 0.00 55 1008.9
20260905165744 97 314 0.0 0.0 0.00 0.00 0.00 54 1008.7
20260905165240 96 301 2.0 2.0 0.00 0.00 0.00 55 1008.9
20260905164740 98 357 5.0 6.0 0.00 0.00 0.00 56 1009.0
20260905164235 96 296 2.0 2.0 0.00 0.00 0.00 54 1009.2
20260905163730 97 322 4.0 4.0 0.00 0.00 0.00 61 1009.0
20260905163227 96 259 2.0 2.0 0.00 0.00 0.00 57 1009.2
20260905162722 98 303 4.0 6.0 0.00 0.00 0.00 56 1009.2
20260905162222 97 278 2.0 2.0 0.00 0.00 0.00 63 1009.2
20260905161717 97 271 2.0 3.0 0.00 0.00 0.00 58 1009.2
20260905161215 97 232 3.0 3.0 0.00 0.00 0.00 60 1009.2
20260905160713 97 310 3.0 3.0 0.00 0.00 0.00 58 1009.3
20260905160208 96 3 2.0 3.0 0.00 0.00 0.00 63 1009.6
20260905155708 96 299 2.0 3.0 0.00 0.00 0.00 62 1009.4
20260905155207 96 74 0.0 1.0 0.00 0.00 0.00 61 1009.4
20260905154656 95 115 1.0 1.0 0.00 0.00 0.00 63 1009.4
20260905154151 94 120 2.0 2.0 0.00 0.00 0.00 66 1009.5
20260905153647 95 152 0.0 1.0 0.00 0.00 0.00 64 1009.4
20260905153143 94 144 1.0 1.0 0.00 0.00 0.00 65 1009.6
20260905152637 95 209 1.0 1.0 0.00 0.00 0.00 65 1009.4
20260905152132 94 203 2.0 3.0 0.00 0.00 0.00 66 1009.7
20260905151627 94 198 1.0 1.0 0.00 0.00 0.00 65 1009.7
20260905151122 95 109 1.0 2.0 0.00 0.00 0.00 64 1009.4
20260905150618 94 347 1.0 1.0 0.00 0.00 0.00 66 1009.3
20260905150116 93 137 1.0 1.0 0.00 0.00 0.00 67 1009.5
20260905145615 93 308 2.0 2.0 0.00 0.00 0.00 67 1009.5
20260905145114 93 272 2.0 2.0 0.00 0.00 0.00 67 1009.5
20260905144609 92 260 0.0 1.0 0.00 0.00 0.00 68 1009.4
20260905144108 92 348 3.0 3.0 0.00 0.00 0.00 71 1009.5
20260905143602 91 18 2.0 2.0 0.00 0.00 0.00 70 1009.5
20260905143057 92 357 1.0 1.0 0.00 0.00 0.00 72 1009.4
20260905142555 91 329 1.0 2.0 0.00 0.00 0.00 71 1009.5
20260905142050 90 234 1.0 1.0 0.00 0.00 0.00 73 1009.5
20260905141545 89 267 1.0 1.0 0.00 0.00 0.00 74 1009.5
20260905141041 88 233 1.0 1.0 0.00 0.00 0.00 76 1009.3
20260905140536 88 255 2.0 2.0 0.00 0.00 0.00 75 1009.4
20260905140035 87 243 2.0 2.0 0.00 0.00 0.00 78 1009.4
20260905135531 87 254 2.0 2.0 0.00 0.00 0.00 78 1009.3
20260905135025 87 281 1.0 1.0 0.00 0.00 0.00 79 1009.3
20260905134520 87 245 2.0 3.0 0.00 0.00 0.00 79 1009.4
20260905134019 86 239 0.0 1.0 0.00 0.00 0.00 81 1009.3
20260905133514 86 247 1.0 1.0 0.00 0.00 0.00 82 1008.9
20260905133014 86 226 0.0 1.0 0.00 0.00 0.00 81 1009.3
20260905132508 86 225 0.0 0.0 0.00 0.00 0.00 82 1009.1
20260905132003 85 215 0.0 0.0 0.00 0.00 0.00 83 1009.2
20260905131459 84 214 0.0 0.0 0.00 0.00 0.00 84 1008.9
20260905130954 84 215 0.0 0.0 0.00 0.00 0.00 86 1009.1
20260905130453 83 215 0.0 0.0 0.00 0.00 0.00 91 1008.9
20260905125953 82 215 0.0 0.0 0.00 0.00 0.00 91 1009.0
20260905125447 83 214 0.0 0.0 0.00 0.00 0.00 91 1008.9
20260905124943 82 213 0.0 0.0 0.00 0.00 0.00 92 1009.2
20260905124440 81 214 0.0 0.0 0.00 0.00 0.00 95 1009.0
20260905123935 79 213 0.0 0.0 0.00 0.00 0.00 96 1008.8
20260905123431 78 213 0.0 0.0 0.00 0.00 0.00 99 1008.9
20260905122926 77 213 0.0 0.0 0.00 0.00 0.00 99 1008.8
20260905122426 76 213 0.0 0.0 0.00 0.00 0.00 99 1009.1
20260905121921 75 213 0.0 0.0 0.00 0.00 0.00 99 1008.9
20260905121417 75 266 0.0 0.0 0.00 0.00 0.00 99 1009.0
20260905120915 75 268 0.0 0.0 0.00 0.00 0.00 99 1008.8
20260905120410 75 268 0.0 0.0 0.00 0.00 0.00 99 1008.8
20260905115905 74 269 0.0 0.0 0.00 0.00 0.00 99 1008.9
20260905115404 74 207 0.0 0.0 0.00 0.00 0.00 99 1008.7
20260905114859 74 207 0.0 0.0 0.00 0.00 0.00 99 1008.7
20260905114358 74 206 0.0 0.0 0.00 0.00 0.00 99 1008.9
20260905113852 74 184 1.0 2.0 0.00 0.00 0.00 99 1008.7
20260905113348 74 182 0.0 0.0 0.00 0.00 0.00 99 1008.9
20260905112843 74 182 0.0 0.0 0.00 0.00 0.00 99 1008.6
20260905112337 74 182 0.0 0.0 0.00 0.00 0.00 99 1008.6
20260905111833 74 182 0.0 0.0 0.00 0.00 0.00 99 1008.4
20260905111327 74 182 0.0 0.0 0.00 0.00 0.00 99 1008.4
20260905110826 74 182 0.0 0.0 0.00 0.00 0.00 99 1008.3
20260905110320 74 182 0.0 1.0 0.00 0.00 0.00 99 1008.4
20260905105816 74 182 0.0 1.0 0.00 0.00 0.00 99 1008.7
20260905105315 74 182 0.0 0.0 0.00 0.00 0.00 99 1008.3
20260905104809 74 182 0.0 1.0 0.00 0.00 0.00 99 1008.3
20260905104306 74 182 0.0 0.0 0.00 0.00 0.00 99 1008.4
20260905103805 74 182 0.0 1.0 0.00 0.00 0.00 99 1008.2
20260905103301 75 183 0.0 0.0 0.00 0.00 0.00 99 1008.2
20260905102756 74 183 0.0 0.0 0.00 0.00 0.00 99 1008.3
20260905102253 75 183 0.0 0.0 0.00 0.00 0.00 99 1008.1
20260905101753 75 183 0.0 0.0 0.00 0.00 0.00 99 1008.4
20260905101251 75 183 0.0 0.0 0.00 0.00 0.00 99 1008.4
20260905100746 74 183 0.0 0.0 0.00 0.00 0.00 99 1008.5
20260905100242 75 183 0.0 0.0 0.00 0.00 0.00 99 1008.5
20260905095741 75 183 0.0 0.0 0.00 0.00 0.00 99 1008.4
20260905095241 75 183 0.0 0.0 0.00 0.00 0.00 99 1008.4
20260905094736 75 182 0.0 0.0 0.00 0.00 0.00 99 1008.3
20260905094232 75 182 0.0 0.0 0.00 0.00 0.00 99 1008.4
20260905093730 75 183 0.0 0.0 0.00 0.00 0.00 99 1008.2
20260905093227 75 182 0.0 0.0 0.00 0.00 0.00 99 1008.3
20260905092722 75 182 0.0 0.0 0.00 0.00 0.00 99 1008.3
20260905092217 75 182 0.0 0.0 0.00 0.00 0.00 99 1008.5
20260905091716 75 182 0.0 0.0 0.00 0.00 0.00 99 1008.3
20260905091211 75 182 0.0 0.0 0.00 0.00 0.00 99 1008.4
20260905090705 75 182 0.0 0.0 0.00 0.00 0.00 99 1008.3
20260905090202 75 180 1.0 1.0 0.00 0.00 0.00 99 1008.0
20260905085700 75 203 0.0 0.0 0.00 0.00 0.00 99 1008.4
20260905085155 75 221 0.0 1.0 0.00 0.00 0.00 99 1008.2
20260905084655 75 221 0.0 0.0 0.00 0.00 0.00 99 1008.3
20260905084150 75 221 0.0 0.0 0.00 0.00 0.00 99 1008.1
20260905083644 75 221 0.0 0.0 0.00 0.00 0.00 99 1008.2
20260905083141 75 221 0.0 0.0 0.00 0.00 0.00 99 1008.1
20260905082637 75 221 0.0 0.0 0.00 0.00 0.00 99 1008.4
20260905082131 75 221 0.0 0.0 0.00 0.00 0.00 99 1008.5
20260905081626 75 221 1.0 1.0 0.00 0.00 0.00 99 1008.2
20260905081126 75 222 0.0 0.0 0.00 0.00 0.00 99 1008.6
20260905080620 75 222 0.0 0.0 0.00 0.00 0.00 99 1008.5
20260905080115 75 222 0.0 0.0 0.00 0.00 0.00 99 1008.3
20260905075614 75 222 0.0 0.0 0.00 0.00 0.00 99 1008.4
20260905075108 75 222 0.0 0.0 0.00 0.00 0.00 99 1008.4
20260905074608 75 222 0.0 0.0 0.00 0.00 0.00 99 1008.2
20260905074103 76 213 0.0 1.0 0.00 0.00 0.00 99 1008.3
20260905073558 76 211 0.0 1.0 0.00 0.00 0.00 99 1008.6
20260905073054 75 211 0.0 0.0 0.00 0.00 0.00 99 1008.4
20260905072553 76 211 0.0 0.0 0.00 0.00 0.00 99 1008.4
20260905072048 76 211 1.0 1.0 0.00 0.00 0.00 99 1008.6
20260905071545 76 224 0.0 0.0 0.00 0.00 0.00 99 1008.6
20260905071041 76 224 0.0 0.0 0.00 0.00 0.00 99 1008.6
20260905070536 76 224 1.0 1.0 0.00 0.00 0.00 99 1008.4
20260905070032 76 225 0.0 0.0 0.00 0.00 0.00 99 1008.4
20260905065529 76 225 0.0 1.0 0.00 0.00 0.00 99 1008.4
20260905065024 76 224 0.0 0.0 0.00 0.00 0.00 99 1008.6
20260905064519 76 224 0.0 0.0 0.00 0.00 0.00 99 1008.5
20260905064015 76 224 0.0 1.0 0.00 0.00 0.00 99 1008.5
20260905063513 76 225 0.0 0.0 0.00 0.00 0.00 99 1008.5
20260905063010 76 225 0.0 0.0 0.00 0.00 0.00 99 1008.5
20260905062510 76 225 0.0 0.0 0.00 0.00 0.00 99 1008.6
20260905062005 76 225 0.0 0.0 0.00 0.00 0.00 99 1008.6
20260905061500 76 225 0.0 0.0 0.00 0.00 0.00 99 1008.7
20260905060959 76 226 1.0 1.0 0.00 0.00 0.00 99 1008.6
20260905060455 76 223 0.0 0.0 0.00 0.00 0.00 99 1008.6
20260905055955 77 224 0.0 0.0 0.00 0.00 0.00 99 1008.8
20260905055454 77 222 0.0 1.0 0.00 0.00 0.00 99 1008.5
20260905054949 77 207 0.0 0.0 0.00 0.00 0.00 99 1008.7
20260905054444 77 207 0.0 0.0 0.00 0.00 0.00 99 1008.7
20260905053939 77 207 0.0 1.0 0.00 0.00 0.00 99 1008.7
20260905053434 77 207 0.0 0.0 0.00 0.00 0.00 99 1008.9
20260905052930 77 207 0.0 0.0 0.00 0.00 0.00 99 1009.0
20260905052429 77 207 0.0 0.0 0.00 0.00 0.00 99 1008.7
20260905051929 77 207 0.0 0.0 0.00 0.00 0.00 99 1008.7
20260905051424 77 208 0.0 0.0 0.00 0.00 0.00 99 1008.8
20260905050922 77 208 1.0 1.0 0.00 0.00 0.00 99 1008.6
20260905050417 78 207 0.0 0.0 0.00 0.00 0.00 99 1008.8
20260905045913 77 207 0.0 0.0 0.00 0.00 0.00 99 1008.9
20260905045408 77 207 0.0 0.0 0.00 0.00 0.00 98 1009.1
20260905044903 77 207 0.0 0.0 0.00 0.00 0.00 98 1008.8
20260905044358 78 207 1.0 1.0 0.00 0.00 0.00 98 1008.7
20260905043856 78 207 0.0 0.0 0.00 0.00 0.00 98 1008.7
20260905043352 78 207 0.0 0.0 0.00 0.00 0.00 98 1008.9
20260905042847 78 207 0.0 1.0 0.00 0.00 0.00 98 1008.8
20260905042346 78 207 1.0 1.0 0.00 0.00 0.00 98 1009.1
20260905041835 78 207 0.0 0.0 0.00 0.00 0.00 97 1008.9
20260905041331 78 207 0.0 0.0 0.00 0.00 0.00 97 1008.9
20260905040826 78 207 0.0 0.0 0.00 0.00 0.00 98 1009.1
20260905040325 78 207 0.0 0.0 0.00 0.00 0.00 97 1009.1
20260905035825 78 207 0.0 0.0 0.00 0.00 0.00 97 1009.1
20260905035320 78 207 0.0 0.0 0.00 0.00 0.00 97 1009.0
20260905034817 78 207 0.0 1.0 0.00 0.00 0.00 97 1008.8
20260905034312 79 207 0.0 0.0 0.00 0.00 0.00 97 1008.9
20260905033810 79 204 1.0 1.0 0.00 0.00 0.00 97 1008.9
20260905033306 79 175 0.0 0.0 0.00 0.00 0.00 97 1009.0
20260905032806 79 175 0.0 0.0 0.00 0.00 0.00 96 1009.0
20260905032305 79 175 0.0 0.0 0.00 0.00 0.00 96 1008.9
20260905031756 79 176 0.0 0.0 0.00 0.00 0.00 96 1008.9
20260905031252 79 175 0.0 1.0 0.00 0.00 0.00 95 1008.9
20260905030747 80 176 0.0 0.0 0.00 0.00 0.00 95 1008.8
20260905030242 80 175 0.0 0.0 0.00 0.00 0.00 95 1008.9
20260905025736 80 175 0.0 0.0 0.00 0.00 0.00 95 1009.0
20260905025232 80 175 0.0 0.0 0.00 0.00 0.00 95 1009.0
20260905024727 80 175 1.0 1.0 0.00 0.00 0.00 95 1009.0
20260905024224 80 175 0.0 1.0 0.00 0.00 0.00 95 1008.9
20260905023723 80 175 0.0 0.0 0.00 0.00 0.00 95 1008.9
20260905023218 80 175 0.0 0.0 0.00 0.00 0.00 95 1009.0
20260905022718 80 175 0.0 0.0 0.00 0.00 0.00 94 1008.9
20260905022213 80 175 0.0 0.0 0.00 0.00 0.00 94 1008.9
20260905021707 80 175 0.0 1.0 0.00 0.00 0.00 95 1009.0
20260905021203 80 175 0.0 0.0 0.00 0.00 0.00 94 1008.8
20260905020657 81 175 0.0 1.0 0.00 0.00 0.00 93 1008.8
20260905020153 81 175 0.0 0.0 0.00 0.00 0.00 93 1008.7
20260905015651 82 175 0.0 0.0 0.00 0.00 0.00 92 1008.9
20260905015145 81 174 0.0 0.0 0.00 0.00 0.00 91 1008.5
20260905014639 81 174 0.0 0.0 0.00 0.00 0.00 90 1008.8
20260905014134 81 174 0.0 0.0 0.00 0.00 0.00 90 1008.7
20260905013631 82 174 0.0 0.0 0.00 0.00 0.00 90 1008.4
20260905013126 82 173 0.0 0.0 0.00 0.00 0.00 89 1008.5